Regional Weather Roundup
Issued by NWS Newport/Morehead, NC

Current Version | Previous Version | Text Only | Print | Product List | Glossary On
Versions: 1 2 3 4 5 6 7 8 9 10 11 12 13 14 15 16 17 18 19 20 21 22 23 24 25 26 27 28 29 30 31 32 33 34 35 36 37 38 39 40 41 42 43 44 45 46 47 48 49 50
494 ASUS42 KMHX 252225 RWRMHX WEATHER ROUNDUP FOR EASTERN NORTH CAROLINA NATIONAL WEATHER SERVICE NEWPORT/MOREHEAD CITY NC 600 PM EDT FRI MAY 25 2018 NOTE: "FAIR" INDICATES FEW OR NO CLOUDS BELOW 12,000 FEET WITH NO SIGNIFICANT WEATHER AND/OR OBSTRUCTIONS TO VISIBILITY NCZ015>017-031-032-045>047-102-103-252300- NORTH COAST CITY SKY/WX TMP DP RH WIND PRES REMARKS EDENTON FAIR 83 71 65 S12 30.00F ELIZABETH CITY FAIR 83 65 54 S13 30.00S KITTY HAWK FAIR 78 66 66 S8 30.01S MANTEO FAIR 78 68 70 S17 30.03S $$ NCZ045>047-081-094-103-104-252300- CENTRAL COAST CITY SKY/WX TMP DP RH WIND PRES REMARKS FRISCO PTSUNNY 79 71 76 S9 30.03F $$ NCZ095-097-098-100-101-252300- SOUTHERN COAST CITY SKY/WX TMP DP RH WIND PRES REMARKS BEAUFORT FAIR 79 71 76 S12 30.03F CEDAR ISLAND NOT AVBL JACKSONVILLE FAIR 79 71 76 S9 30.01F PINEY ISLAND NOT AVBL WILMINGTON FAIR 79 69 71 S8 30.01F $$ NCZ011>013-027>030-043-044-078>080-089-090>093-098-252300- COASTAL PLAIN CITY SKY/WX TMP DP RH WIND PRES REMARKS AHOSKIE FAIR 83 65 54 S6 29.98F CLINTON FAIR 82 71 68 S6 30.02S ELIZABETHTOWN FAIR 84 69 60 S6 30.01S GOLDSBORO FAIR 76 71 83 S3 30.00F GREENVILLE PTSUNNY 79 70 73 W9G16 30.03R HAVELOCK SUNNY 82 71 69 S14 30.02F KENANSVILLE FAIR 75 73 94 CALM 30.02S KINSTON CLOUDY 73 72 94 CALM 30.02S NEW BERN FAIR 81 66 60 S14 30.02F RICHLANDS PTSUNNY 79 69 71 S7 30.02F ROCKY MOUNT PTSUNNY 83 66 56 S8 29.99F WASHINGTON FAIR 84 68 57 CALM 30.00F WHITEVILLE FAIR 84 66 54 SE7 30.00S $$ AMZ130-135-150-152-154-156-158-170-250-252-270-ANZ085-086-088-633-658-670-252300- MARINE OBSERVATIONS STATION/POSITION TIME TEMP WIND PRES WAVE SWELL AIR SEA DIR/SP/G HT/PER HT/PER (UTC) (F) (DEG/KT/KT) (MB) (FT/S) (FT/S) CHESAPEAKE LIGHT NOT AVBL 64 E VA BEACH 2150 71 71 180/ 10/ 10 1017.1 2/ 9 2/ 9 DUCK 2200 79 73 170/ 16/ 19 1015.5 2 E DUCK 2200 73 N/A 2/ 4 OREGON INLET 2200 180/ 15/ 17 N/A 13E OREGON INLT 2148 72 N/A 2/ 8 2/ 8 HATTERAS CG 2200 79 77 190/ 4/ 8 1016.8 DIAMOND BUOY 2210 77 78 180/ 14/ 17 1017.2 CAPE LOOKOUT 2200 190/ 8/ 11 1017.2 BEAUFORT LAB 2200 78 79 200/ 12/ 14 1017.1 30 SE NEW RVR IN 2208 77 77 180/ 6/ 10 1016.8 30 SE NEW RVR IN 2200 77 N/A 3/ 9 27 SE WRIGHTSVLE 2208 77 77 190/ 6/ 10 1016.7 5 SE WRIGHTSVLE 2208 76 75 150/ 8/ 10 1015.8 225 S CAPE HAT 2210 80 170/ 6/ 8 1017.4 41 SE CHARLESTON 2200 77 170/ 10/ 10 1016.4 $$

USA.gov is the U.S. government's official web portal to all federal, state and local government web resources and services.